AirNav   Phillips 66 Aviation Fuel
 
 992 users online  

O74 Elliot's Landing Airport
Mount Victory, Ohio, USA

GOING TO MOUNT VICTORY?


FAA INFORMATION EFFECTIVE 23 MAY 2019

Location

FAA Identifier: O74
Lat/Long: 40-31-29.0000N / 083-30-42.0000W
40-31.483333N / 083-30.700000W
40.5247222 / -83.5116667
(estimated)
Elevation: 1045 ft. / 319 m (estimated)
Variation: 05W (1995)
From city: 1 mile SE of MOUNT VICTORY, OH
Time zone: UTC -4 (UTC -5 during Standard Time)
Zip code: 43340

Airport Operations

Airport use: Open to the public
Activation date: 06/1995
Control tower: no
ARTCC: INDIANAPOLIS CENTER
FSS: DAYTON FLIGHT SERVICE STATION
NOTAMs facility: DAY (NOTAM-D service available)
Attendance: UNATNDD
Wind indicator: yes
Segmented circle: no

Airport Communications

CTAF: 122.9
WX AWOS-3 at EDJ (17 nm SW): 118.075 (937-599-4654)
WX AWOS-3 at MRT (19 nm S): 119.275 (937-644-2967)

Nearby radio navigation aids

VOR radial/distance  VOR name  Freq  Var
BUDr260/(21.1)BUCKEYE VOR109.8005W
FBCr159/28.1FLAG CITY VORTAC108.2002W
RODr065/28.1ROSEWOOD VORTAC117.5005W

 
NDB name  Hdg/Dist  Freq  Var  ID
TIFFIN207/36.826905WTII - .. ..

Airport Services

Runway Information

Runway 15/33

Dimensions: 2750 x 110 ft. / 838 x 34 m
Surface: turf, in good condition
Runway edge markings: 15/33 MARKED WITH TIRES ON EACH END.
RUNWAY 15  RUNWAY 33
Traffic pattern: leftleft
Obstructions: 63 ft. trees, 867 ft. from runway, 82 ft. left of centerline, 13:1 slope to clear35 ft. pline, 400 ft. from runway, 162 ft. left of centerline, 11:1 slope to clear

Airport Ownership and Management from official FAA records

Ownership: Privately-owned
Owner: ELLIOT & ELLIOTT INC
BOX 257 491 S MAIN ST
MT VICTORY, OH 43340-0257
Phone 937-354-2851
Manager: JOAN E. WAGNER
BOX 257 491 S MAIN ST
MT VICTORY, OH 43340-0257
Phone 937-354-2851

Airport Operational Statistics

Aircraft operations: avg 30/week *
100% transient general aviation
* for 12-month period ending 03 September 2016

Instrument Procedures

There are no published instrument procedures at O74.

Some nearby airports with instrument procedures:

I95 - Hardin County Airport (8 nm NW)
KEDJ - Bellefontaine Regional Airport (17 nm SW)
KMRT - Union County Airport (19 nm S)
KMNN - Marion Municipal Airport (21 nm E)
56D - Wyandot County Airport (23 nm NE)
 
Loc | Ops | Rwys | IFR | FBO | Links
Com | Nav | Svcs | Stats | Notes
Area around O74 (Elliot's Landing Airport)
 
Road maps at: MapQuest Bing Google
 
Aerial photo
WARNING: Photo may not be current or correct
Aerial photo of O74 (Elliot's Landing Airport)
Do you have a better or more recent aerial photo of Elliot's Landing Airport that you would like to share? If so, please send us your photo.

 
Sectional chart

 
Airport distance calculator
Flying to Elliot's Landing Airport? Find the distance to fly.

From to O74

Sunrise and sunset
Times for 16-Jun-2019
 Local
(UTC-4)
 Zulu
(UTC)
Morning civil twilight05:3109:31
Sunrise06:0410:04
Sunset21:0601:06
Evening civil twilight21:3901:39

Current date and time
Zulu (UTC)  16-Jun-2019 16:12:42
Local (UTC-4)  16-Jun-2019 12:12:42
 
METAR
KEDJ 
17nm SW 
161600Z AUTO 24012G15KT 10SM SCT014 BKN020 BKN029 22/22 A2987 RMK AO1
KMRT 
19nm S 
161559Z AUTO 25010G17KT 10SM OVC012 22/19 A2987 RMK AO2 P0003 T02220193
KMNN 
21nm E 
161311Z AUTO 21010KT 3SM -RA BR SCT008 BKN013 OVC055 21/19 A2983 RMK AO2 LTG DSNT W RAB1259 P0002 T02060189
KDLZ 
23nm SE 
161535Z AUTO 23009G15KT 7SM OVC010 20/20 A2987 RMK AO2
KAOH 
25nm NW 
161553Z AUTO 25015KT 10SM SCT018 BKN023 BKN030 23/19 A2984 RMK AO2 SLP098 T02330189
KFDY 
30nm N 
161600Z AUTO 25012KT 10SM FEW020 SCT026 BKN037 24/19 A2981 RMK AO2 T02440194
KOSU 
33nm SE 
161553Z 22011KT 10SM OVC015 22/19 A2987 RMK AO2 SLP110 T02170194
TAF
KFDY 
30nm N 
161403Z 1614/1712 23007KT P6SM VCSH SCT008 OVC015 TEMPO 1614/1616 BKN008 FM162300 01005KT P6SM VCSH BKN025 OVC035 FM170700 04004KT P6SM BKN003 OVC050
NOTAMs
Click for the latest NOTAMs
NOTAMs are issued by the DoD/FAA and will open in a separate window not controlled by AirNav.

 

 
 

Would you like to see your business listed on this page?

 If your business provides an interesting product or service to pilots, flight crews, aircraft, or users of the Elliot's Landing Airport, you should consider listing it here.  To start the listing process, click on the button below
 
Add a business
 

Other Pages about Elliot's Landing Airport

Update a link
 
Copyright © AirNav, LLC. All rights reserved. Privacy Policy  Contact